Location: Newark
(23.2528°N, 105.1886°E)
Time: 03:04:36
(UTC+00:00)

OTV 5 (USA 277) - Visible Passes

Search period start: 17 October 2019 00:00
Search period end: 27 October 2019 00:00
Orbit: 310 x 324 km, 54.5° (Epoch: 08 October)

Date Brightness Start Highest point End Pass type
(mag) Time Alt. Az. Time Alt. Az. Time Alt. Az.
21 Oct ? 22:00:44 10° N 22:02:58 22° NE 22:05:11 10° ESE visible
22 Oct ? 22:15:07 12° NW 22:17:31 76° SW 22:20:13 10° SSE visible
23 Oct ? 22:30:13 10° W 22:31:57 16° WSW 22:33:44 10° SSW visible
24 Oct ? 11:33:53 10° S 11:35:38 27° SSE 11:35:38 27° SSE visible
24 Oct ? 21:14:26 15° ESE 21:14:26 15° ESE 21:14:59 10° SE visible
25 Oct ? 11:48:14 10° SW 11:50:43 44° WNW 11:50:43 44° WNW visible
26 Oct ? 12:04:12 10° WNW 12:05:28 12° NW 12:05:41 12° NW visible
